COSMOS 1691 DEB, 16269

Orbit data source: Space-Track

COSMOS 1691 DEB, 16269 is space debris in LEO originally from a launch on Wed, 09 Oct 1985 UTC launched from the Plesetsk Missile And Space Complex (PKMTR). Debris objects in space refer to the collection of defunct objects orbiting the Earth. Examples of debris include non-operational satellites, rocket bodies, and fragments generated from explosions, collisions, or faulty payload assembly.

Loading next visibility...
Identifier
16269, 1985-094N
Orbit
LEO
Country
Flag of CISCIS
Related business
Manufacturer
Unknown
Mission
Spacecraft
Bus & Motor
Unknown
Mass
Unknown
Launch date (UTC)
1985-10-09 (41 years ago)
Launch vehicle
Unknown
Launch site
Plesetsk Missile And Space Complex (PKMTR)
Object type
Payload
Rocket body
Debris
Shape & HBR
Unknown shape, 0.2 m
Radar Cross Section
Medium (>0.1 m² and <1 m²)

Expand to show TLE details & history
Last TLE update: 2 days ago

TLE from 2 days ago
0 COSMOS 1691 DEB
1 16269U 85094N   26171.38928337  .00000023  00000-0  67590-4 0  9996
2 16269  82.6242 309.1830 0012844 110.8839 276.6080 12.62289714874036
Epoch: 2026-06-20T09:20Z
TLE epoch observation values (Epoch: 2026-06-20T09:20:34.083Z)
Latitude
27.13621°
Longitude
-95.77834°
Altitude
1,415.544 km
Speed
7.156 km/s
True Right ascension
20h 51m 52s
True Declination
27° 00' 31"
Sunlit
Object was in daylight at epoch
Visualization orbit readout
Latitude
Unknown
Longitude
Unknown
Altitude
Unknown
Speed
Unknown
Apparent Right ascension
Unknown
Apparent Declination
Unknown
Sunlit
N/A
Visualization observer readout
Local Sidereal Time
00:51:03
Azimuth
Unknown
Elevation
Unknown
Doppler factor
Unknown
Orbital elements
Apogee altitude
1,420.831 km
Perigee altitude
1,400.823 km
Semi-major axis
7,788.964 km
Eccentricity
0.00128
Inclination
82.6242°
RAAN
309.183°
Arg. of periapsis
110.8839°
True anomaly
276.46177°
Mean anomaly
276.608°
Eccentric anomaly
276.53489°
Mean motion
3.15736 °/min
Orbital period
114.02 mins
BSTAR
0.00006759
Loading maneuver chart data...
Computing Atmospheric mass density...
Loading historical data...
Loading historical data...
Loading historical data...
Loading historical data...
Loading historical data...
Loading historical data...
Loading historical data...

Documentation

Showing up to 5 results
|